Location: Chrząstowo
(52.0654°N, 17.1290°E)
Time: 05:07:47
(UTC+01:00)

BUGSAT 1 - Visible Passes

Search period start: 28 February 2020 00:00
Search period end: 09 March 2020 00:00
Orbit: 560 x 602 km, 98.0° (Epoch: 27 February)

Date Brightness Start Highest point End Pass type
(mag) Time Alt. Az. Time Alt. Az. Time Alt. Az.
28 Feb ? 02:51:14 10° NNE 02:52:23 18° NNE 02:52:23 18° NNE visible
28 Feb ? 04:27:16 10° NNW 04:28:45 16° NNW 04:28:45 16° NNW visible
29 Feb ? 02:56:29 10° NNE 02:57:50 20° NNE 02:57:50 20° NNE visible
29 Feb ? 04:32:39 10° NNW 04:34:12 16° NNW 04:34:12 16° NNW visible
01 Mar ? 03:01:43 10° NNE 03:03:17 22° NNE 03:03:17 22° NNE visible
01 Mar ? 04:38:02 10° NNW 04:39:39 15° NW 04:39:39 15° NW visible
02 Mar ? 03:06:58 10° NNE 03:08:44 24° NNE 03:08:44 24° NNE visible
02 Mar ? 04:43:27 10° NNW 04:45:06 15° NW 04:45:06 15° NW visible
03 Mar ? 03:12:13 10° NNE 03:14:11 27° NNE 03:14:11 27° NNE visible
03 Mar ? 04:48:54 10° NNW 04:50:33 14° NW 04:50:33 14° NW visible
04 Mar ? 03:17:29 10° NNE 03:19:39 29° N 03:19:39 29° N visible
04 Mar ? 04:54:23 10° NNW 04:56:00 13° NW 04:56:00 13° NW visible
05 Mar ? 01:48:39 10° NE 01:48:43 10° NE 01:48:43 10° NE visible
05 Mar ? 03:22:45 10° N 03:25:05 32° N 03:25:05 32° N visible
05 Mar ? 04:59:55 10° NNW 05:01:27 12° NW 05:01:27 12° NW visible
06 Mar ? 01:53:41 10° NE 01:54:10 12° NE 01:54:10 12° NE visible
06 Mar ? 03:28:01 10° N 03:30:32 34° N 03:30:32 34° N visible
06 Mar ? 05:05:36 10° NW 05:06:43 11° NW 05:06:54 11° NW visible
07 Mar ? 01:58:46 10° NE 01:59:37 13° NE 01:59:37 13° NE visible
07 Mar ? 03:33:17 10° N 03:35:59 36° N 03:35:59 36° N visible
08 Mar ? 02:03:52 10° NE 02:05:03 15° NE 02:05:03 15° NE visible
08 Mar ? 03:38:34 10° N 03:41:25 37° NNW 03:41:25 37° NNW visible
